NPV1459 KTEX-KASE

Flight info

Callsign NPV1459
Flight time 0h 24m
Altitude 17000
Route ETL V68 MTJ V361 DBL
Aircraft A319/M-SDE3FGHIRWY/LB1

Departure

Time 2026-05-04 11:36
Airport Telluride Regional Airport (KTEX)

Arrival

Time 2026-05-04 12:00
Airport Aspen-Pitkin County Airport (Sardy Field) (KASE)
Time Latitude Longitude Altitude Speed Heading
2026-05-04 11:16 37.95438 -107.90272 9069 ft 0 kts 105°
2026-05-04 11:27 37.95401 -107.90256 9066 ft 0 kts 15°
2026-05-04 11:33 37.95304 -107.89963 9073 ft 9 kts 103°
2026-05-04 11:33 37.95297 -107.89925 9073 ft 4 kts 104°
2026-05-04 11:33 37.95280 -107.89851 9076 ft 14 kts 104°
2026-05-04 11:34 37.95246 -107.89698 9075 ft 16 kts 109°
2026-05-04 11:34 37.95160 -107.89684 9073 ft 12 kts 195°
2026-05-04 11:34 37.95147 -107.89762 9073 ft 9 kts 283°
2026-05-04 11:34 37.95149 -107.89768 9073 ft 0 kts 284°
2026-05-04 11:35 37.95185 -107.89938 9066 ft 52 kts 285°
2026-05-04 11:35 37.95357 -107.90751 9050 ft 137 kts 285°
2026-05-04 11:35 37.95653 -107.92155 9451 ft 169 kts 285°
2026-05-04 11:36 37.95943 -107.93562 10614 ft 163 kts 284°
2026-05-04 11:36 37.96208 -107.94953 11134 ft 166 kts 281°
2026-05-04 11:36 37.96534 -107.96458 11367 ft 187 kts 285°
2026-05-04 11:36 37.96958 -107.98096 11321 ft 204 kts 286°
2026-05-04 11:37 37.97431 -107.99831 11662 ft 212 kts 287°
2026-05-04 11:37 37.97930 -108.01671 11834 ft 235 kts 287°
2026-05-04 11:37 37.98498 -108.03763 11935 ft 267 kts 290°
2026-05-04 11:37 37.99676 -108.05750 12068 ft 300 kts 319°
2026-05-04 11:38 38.01657 -108.06891 12245 ft 332 kts 347°
2026-05-04 11:38 38.04065 -108.06839 12478 ft 360 kts
2026-05-04 11:38 38.06550 -108.06125 13027 ft 372 kts 13°
2026-05-04 11:38 38.09030 -108.05103 13715 ft 378 kts 15°
2026-05-04 11:39 38.11526 -108.03984 14380 ft 382 kts 15°
2026-05-04 11:39 38.14056 -108.02885 15011 ft 386 kts 14°
2026-05-04 11:40 38.30267 -107.97110 16827 ft 430 kts 11°
2026-05-04 11:41 38.33160 -107.96109 16847 ft 431 kts 11°
2026-05-04 11:41 38.34138 -107.95767 16856 ft 431 kts 11°
2026-05-04 11:41 38.39489 -107.93878 16898 ft 431 kts 12°
2026-05-04 11:41 38.42384 -107.92849 16927 ft 430 kts 12°
2026-05-04 11:42 38.45258 -107.91827 16917 ft 429 kts 12°
2026-05-04 11:42 38.48130 -107.90808 16919 ft 429 kts 12°
2026-05-04 11:42 38.50981 -107.89670 16918 ft 431 kts 18°
2026-05-04 11:42 38.53726 -107.88097 16917 ft 433 kts 21°
2026-05-04 11:43 38.56457 -107.86472 16921 ft 433 kts 21°
2026-05-04 11:43 38.59187 -107.84850 16922 ft 433 kts 21°
2026-05-04 11:43 38.61919 -107.83230 16897 ft 433 kts 21°
2026-05-04 11:43 38.64656 -107.81601 16877 ft 433 kts 21°
2026-05-04 11:44 38.67387 -107.79967 16724 ft 433 kts 22°
2026-05-04 11:44 38.70079 -107.78235 16721 ft 434 kts 28°
2026-05-04 11:44 38.72557 -107.76010 16716 ft 436 kts 38°
2026-05-04 11:44 38.74798 -107.73373 16726 ft 438 kts 42°
2026-05-04 11:45 38.76988 -107.70734 16741 ft 437 kts 42°
2026-05-04 11:45 38.79205 -107.68074 16746 ft 437 kts 41°
2026-05-04 11:45 38.81432 -107.65414 16748 ft 436 kts 41°
2026-05-04 11:45 38.83652 -107.62764 16748 ft 436 kts 41°
2026-05-04 11:46 38.85863 -107.60114 16753 ft 436 kts 41°
2026-05-04 11:46 38.88075 -107.57454 16752 ft 435 kts 41°
2026-05-04 11:46 38.90286 -107.54793 16751 ft 435 kts 41°
2026-05-04 11:46 38.92494 -107.52136 16759 ft 435 kts 43°
2026-05-04 11:47 38.94695 -107.49484 16741 ft 431 kts 43°
2026-05-04 11:47 38.96876 -107.46851 16742 ft 429 kts 43°
2026-05-04 11:47 38.99048 -107.44226 16734 ft 429 kts 43°
2026-05-04 11:47 39.01220 -107.41598 16733 ft 428 kts 43°
2026-05-04 11:48 39.03388 -107.38971 16732 ft 428 kts 43°
2026-05-04 11:48 39.05609 -107.36410 16727 ft 429 kts 37°
2026-05-04 11:48 39.08123 -107.34366 16722 ft 428 kts 25°
2026-05-04 11:48 39.10897 -107.33000 16722 ft 427 kts 13°
2026-05-04 11:49 39.13775 -107.32395 16719 ft 425 kts
2026-05-04 11:49 39.16712 -107.32520 16710 ft 422 kts 351°
2026-05-04 11:49 39.19593 -107.33191 16713 ft 416 kts 347°
2026-05-04 11:49 39.22432 -107.33888 16717 ft 414 kts 347°
2026-05-04 11:50 39.23384 -107.34121 16716 ft 414 kts 348°
2026-05-04 11:50 39.28069 -107.35261 16064 ft 410 kts 348°
2026-05-04 11:50 39.30874 -107.35800 15469 ft 407 kts 355°
2026-05-04 11:50 39.33686 -107.35626 14910 ft 404 kts
2026-05-04 11:51 39.36365 -107.34693 14683 ft 396 kts 20°
2026-05-04 11:51 39.38820 -107.33095 14704 ft 396 kts 32°
2026-05-04 11:51 39.41080 -107.31054 14715 ft 396 kts 34°
2026-05-04 11:51 39.43217 -107.28848 14709 ft 385 kts 43°
2026-05-04 11:52 39.45022 -107.26468 14741 ft 366 kts 45°
2026-05-04 11:52 39.46750 -107.24168 14748 ft 348 kts 44°
2026-05-04 11:52 39.48225 -107.21781 14773 ft 332 kts 59°
2026-05-04 11:52 39.49034 -107.19060 14779 ft 318 kts 78°
2026-05-04 11:53 39.49202 -107.16222 14262 ft 323 kts 96°
2026-05-04 11:53 39.48916 -107.14311 13705 ft 330 kts 108°
2026-05-04 11:53 39.47742 -107.10665 12967 ft 320 kts 114°
2026-05-04 11:53 39.46895 -107.08096 12819 ft 301 kts 114°
2026-05-04 11:55 39.39609 -106.97136 11583 ft 212 kts 171°
2026-05-04 11:55 39.38205 -106.96734 11261 ft 200 kts 171°
2026-05-04 11:56 39.36884 -106.96347 10941 ft 189 kts 171°
2026-05-04 11:56 39.35636 -106.95981 10696 ft 180 kts 171°
2026-05-04 11:56 39.34437 -106.95632 10433 ft 174 kts 171°
2026-05-04 11:56 39.33300 -106.95299 10180 ft 165 kts 172°
2026-05-04 11:57 39.32217 -106.94978 9930 ft 156 kts 171°
2026-05-04 11:57 39.31236 -106.94438 9740 ft 153 kts 153°
2026-05-04 11:57 39.30401 -106.93587 9533 ft 155 kts 136°
2026-05-04 11:57 39.29754 -106.92465 9321 ft 157 kts 122°
2026-05-04 11:58 39.29295 -106.91193 9087 ft 155 kts 121°
2026-05-04 11:58 39.28615 -106.90145 8853 ft 151 kts 140°
2026-05-04 11:58 39.27717 -106.89466 8602 ft 150 kts 159°
2026-05-04 11:58 39.26742 -106.89006 8345 ft 149 kts 160°
2026-05-04 11:59 39.25781 -106.88534 8145 ft 148 kts 162°
2026-05-04 11:59 39.24819 -106.88078 8027 ft 147 kts 161°
2026-05-04 11:59 39.23854 -106.87629 7889 ft 147 kts 165°
2026-05-04 11:59 39.22904 -106.87172 7876 ft 144 kts 160°
2026-05-04 12:00 39.21997 -106.86729 7820 ft 116 kts 160°
2026-05-04 12:00 39.21601 -106.86546 7824 ft 33 kts 160°
2026-05-04 12:00 39.21484 -106.86474 7822 ft 14 kts 123°
2026-05-04 12:00 39.21504 -106.86393 7821 ft 11 kts 54°
2026-05-04 12:01 39.21570 -106.86390 7821 ft 11 kts 327°
2026-05-04 12:01 39.21630 -106.86444 7820 ft 10 kts 333°
2026-05-04 12:02 39.21905 -106.86454 7821 ft 1 kts 73°
2026-05-04 12:03 39.21905 -106.86451 7821 ft 0 kts 73°